DW4360 Weather Reports


time (UTC)temp
C
wind
direction
speed
KPH
gust
KPH
rain 1hr
cm
rain 24hr
cm
rain mn
cm
humidity
%
barometer
mb
20260504081255 20 315 0.0 0.0 0.00 0.00 0.00 56 1007.0
20260504080254 20 315 0.0 0.0 0.00 0.00 0.00 57 1006.8
20260504070248 22 315 0.0 0.0 0.00 0.00 0.00 47 1006.4
20260504060242 23 315 0.0 0.0 0.00 0.00 0.00 41 1005.9
20260504050236 25 324 0.0 0.0 0.00 0.00 0.00 40 1005.8
20260504045235 25 324 0.0 0.0 0.00 0.00 0.00 40 1005.9
20260504044234 25 316 0.0 0.0 0.00 0.00 0.00 40 1005.8
20260504043233 26 322 3.2 0.0 0.00 0.00 0.00 41 1005.7
20260504042232 26 321 0.0 0.0 0.00 0.00 0.00 41 1005.7
20260504041231 26 324 0.0 0.0 0.00 0.00 0.00 41 1005.7
20260504040230 26 322 0.0 0.0 0.00 0.00 0.00 39 1005.5
20260504035229 27 325 0.0 0.0 0.00 0.00 0.00 38 1005.4
20260504034228 27 304 0.0 0.0 0.00 0.00 0.00 37 1005.3
20260504033226 27 333 0.0 0.0 0.00 0.00 0.00 37 1005.2
20260504032225 28 320 0.0 0.0 0.00 0.00 0.00 36 1005.1
20260504031225 28 325 0.0 0.0 0.00 0.00 0.00 35 1005.0
20260504030223 28 317 0.0 0.0 0.00 0.00 0.00 34 1005.0
20260504025223 29 326 4.8 0.0 0.00 0.00 0.00 33 1004.9
20260504024221 29 321 0.0 0.0 0.00 0.00 0.00 32 1004.8
20260504023221 30 323 3.2 0.0 0.00 0.00 0.00 31 1004.8
20260504022220 30 318 3.2 0.0 0.00 0.00 0.00 31 1004.9
20260504021219 30 313 0.0 0.0 0.00 0.00 0.00 31 1004.9
20260504015217 30 333 3.2 0.0 0.00 0.00 0.00 30 1005.0
20260504014216 31 329 9.7 0.0 0.00 0.00 0.00 30 1005.0
20260504012213 31 311 0.0 0.0 0.00 0.00 0.00 29 1005.0
20260504011213 31 324 6.4 0.0 0.00 0.00 0.00 28 1005.2
20260504010212 32 320 9.7 0.0 0.00 0.00 0.00 27 1005.2
20260504001206 35 332 0.0 0.0 0.00 0.00 0.00 23 1005.4
20260504000205 35 324 6.4 0.0 0.00 0.00 0.00 24 1005.5
20260503234203 35 329 0.0 0.0 0.00 0.00 0.00 24 1005.6
20260503232201 35 301 0.0 0.0 0.00 0.00 0.00 26 1005.8
20260503231200 35 321 4.8 0.0 0.00 0.00 0.00 25 1006.0
20260503225158 34 319 0.0 0.0 0.00 0.00 0.00 25 1006.2
20260503224158 34 323 0.0 0.0 0.00 0.00 0.00 26 1006.4
20260503223157 34 333 0.0 0.0 0.00 0.00 0.00 25 1006.7
20260503222155 34 314 8.0 0.0 0.00 0.00 0.00 26 1006.7
20260503221154 34 309 0.0 0.0 0.00 0.00 0.00 25 1006.9
20260503220153 34 311 0.0 0.0 0.00 0.00 0.00 24 1007.0
20260503215152 34 327 0.0 0.0 0.00 0.00 0.00 27 1007.2
20260503214151 34 317 0.0 0.0 0.00 0.00 0.00 30 1007.3
20260503213150 33 325 8.0 0.0 0.00 0.00 0.00 30 1007.4
20260503212149 33 327 6.4 0.0 0.00 0.00 0.00 31 1007.5
20260503211148 32 109 0.0 0.0 0.00 0.00 0.00 32 1007.7
20260503205146 32 327 0.0 0.0 0.00 0.00 0.00 33 1007.9
20260503203144 31 319 0.0 0.0 0.00 0.00 0.00 36 1008.3
20260503201142 31 311 0.0 0.0 0.00 0.00 0.00 40 1008.5
20260503200141 30 315 0.0 0.0 0.00 0.00 0.00 41 1008.6
20260503195140 30 324 0.0 0.0 0.00 0.00 0.00 42 1008.8
20260503193138 28 318 6.4 0.0 0.00 0.00 0.00 43 1009.0
20260503192137 28 327 11.3 0.0 0.00 0.00 0.00 43 1009.2
20260503191136 27 319 6.4 0.0 0.00 0.00 0.00 45 1009.3
20260503190135 27 320 0.0 0.0 0.00 0.00 0.00 47 1009.5
20260503184133 27 317 0.0 0.0 0.00 0.00 0.00 48 1009.7
20260503183132 26 331 0.0 0.0 0.00 0.00 0.00 49 1009.9
20260503182131 26 315 0.0 0.0 0.00 0.00 0.00 51 1010.0
20260503180129 24 316 0.0 0.0 0.00 0.00 0.00 54 1010.2
20260503175128 23 331 1.6 0.0 0.00 0.00 0.00 56 1010.3
20260503174128 22 317 0.0 0.0 0.00 0.00 0.00 61 1010.4
20260503173126 21 101 0.0 0.0 0.00 0.00 0.00 65 1010.6
20260503172125 20 104 0.0 0.0 0.00 0.00 0.00 72 1010.6
20260503170123 18 324 0.0 0.0 0.00 0.00 0.00 75 1010.6
20260503160116 15 325 0.0 0.0 0.00 0.00 0.00 86 1011.0
20260503150111 13 217 0.0 0.0 0.00 0.00 0.00 93 1011.2
20260503140105 12 218 0.0 0.0 0.00 0.00 0.00 93 1011.0
20260503131100 12 218 0.0 0.0 0.00 0.00 0.00 91 1010.7